Time,TemperatureF,DewpointF,PressureIn,WindDirection,WindDirectionDegrees,WindSpeedMPH,WindSpeedGustMPH,Humidity,HourlyPrecipIn,Conditions,Clouds,dailyrainin,SolarRadiationWatts/m^2,SoftwareType,DateUTC
2013-02-12 00:01:00,19.0,15.0,-100.00,North,0,1.0,9.0,85,0.00,,,0.00,0.000000,,2013-02-12 07:01:00,
2013-02-12 00:32:00,18.0,14.0,-100.00,North,356,0.0,6.0,84,0.00,,,0.00,0.000000,,2013-02-12 07:32:00,
2013-02-12 00:42:00,18.0,14.0,-100.00,North,356,0.0,6.0,84,0.00,,,0.00,0.000000,,2013-02-12 07:42:00,
2013-02-12 00:52:00,18.0,14.0,-100.00,North,356,0.0,6.0,84,0.00,,,0.00,0.000000,,2013-02-12 07:52:00,
2013-02-12 01:01:00,18.0,14.0,-100.00,North,356,0.0,6.0,84,0.00,,,0.00,0.000000,,2013-02-12 08:01:00,
2013-02-12 01:32:00,18.0,12.0,-100.00,North,350,1.0,10.0,78,0.00,,,-99.99,0.000000,,2013-02-12 08:32:00,
2013-02-12 01:42:00,18.0,12.0,-100.00,North,350,1.0,10.0,78,0.00,,,-99.99,0.000000,,2013-02-12 08:42:00,
2013-02-12 01:52:00,18.0,12.0,-100.00,North,350,1.0,10.0,78,0.00,,,-99.99,0.000000,,2013-02-12 08:52:00,
2013-02-12 02:01:00,18.0,12.0,-100.00,North,350,1.0,10.0,78,0.00,,,-99.99,0.000000,,2013-02-12 09:01:00,
2013-02-12 02:32:00,18.0,11.0,-100.00,North,351,4.0,8.0,74,0.00,,,0.00,0.000000,,2013-02-12 09:32:00,
2013-02-12 02:42:00,18.0,11.0,-100.00,North,351,4.0,8.0,74,0.00,,,0.00,0.000000,,2013-02-12 09:42:00,
2013-02-12 02:52:00,18.0,11.0,-100.00,North,351,4.0,8.0,74,0.00,,,0.00,0.000000,,2013-02-12 09:52:00,
2013-02-12 03:01:00,18.0,11.0,-100.00,North,351,4.0,8.0,74,0.00,,,0.00,0.000000,,2013-02-12 10:01:00,
2013-02-12 03:22:00,17.0,9.0,-100.00,North,353,7.0,12.0,71,0.00,,,0.00,0.000000,,2013-02-12 10:22:00,
2013-02-12 03:32:00,17.0,9.0,-100.00,North,353,7.0,12.0,71,0.00,,,0.00,0.000000,,2013-02-12 10:32:00,
2013-02-12 03:43:00,17.0,9.0,-100.00,North,353,7.0,12.0,71,0.00,,,0.00,0.000000,,2013-02-12 10:43:00,
2013-02-12 03:52:00,17.0,9.0,-100.00,North,353,7.0,12.0,71,0.00,,,0.00,0.000000,,2013-02-12 10:52:00,
2013-02-12 04:01:00,17.0,9.0,-100.00,North,353,7.0,12.0,71,0.00,,,0.00,0.000000,,2013-02-12 11:01:00,
2013-02-12 04:32:00,16.0,9.0,-100.00,SW,231,1.0,15.0,73,0.00,,,0.00,0.000000,,2013-02-12 11:32:00,
2013-02-12 04:42:00,16.0,9.0,-100.00,SW,231,1.0,15.0,73,0.00,,,0.00,0.000000,,2013-02-12 11:42:00,
2013-02-12 04:52:00,16.0,9.0,-100.00,SW,231,1.0,15.0,73,0.00,,,0.00,0.000000,,2013-02-12 11:52:00,
2013-02-12 05:01:00,16.0,9.0,-100.00,SW,231,1.0,15.0,73,0.00,,,0.00,0.000000,,2013-02-12 12:01:00,
2013-02-12 05:32:00,17.0,9.0,-100.00,North,3,5.0,9.0,69,0.00,,,0.00,0.000000,,2013-02-12 12:32:00,
2013-02-12 05:42:00,17.0,9.0,-100.00,North,3,5.0,9.0,69,0.00,,,0.00,0.000000,,2013-02-12 12:42:00,
2013-02-12 05:52:00,17.0,9.0,-100.00,North,3,5.0,9.0,69,0.00,,,0.00,0.000000,,2013-02-12 12:52:00,
2013-02-12 06:01:00,17.0,9.0,-100.00,North,3,5.0,9.0,69,0.00,,,0.00,0.000000,,2013-02-12 13:01:00,
2013-02-12 06:22:00,16.0,8.0,-100.00,North,349,6.0,15.0,70,0.00,,,0.00,0.000000,,2013-02-12 13:22:00,
2013-02-12 06:32:00,16.0,8.0,-100.00,North,349,6.0,15.0,70,0.00,,,0.00,0.000000,,2013-02-12 13:32:00,
2013-02-12 06:42:00,16.0,8.0,-100.00,North,349,6.0,15.0,70,0.00,,,0.00,0.000000,,2013-02-12 13:42:00,
2013-02-12 06:52:00,16.0,8.0,-100.00,North,349,6.0,15.0,70,0.00,,,0.00,0.000000,,2013-02-12 13:52:00,
2013-02-12 07:01:00,16.0,8.0,-100.00,North,349,6.0,15.0,70,0.00,,,0.00,0.000000,,2013-02-12 14:01:00,
2013-02-12 07:32:00,16.0,7.0,-100.00,NNE,15,8.0,13.0,67,0.00,,,0.00,0.000000,,2013-02-12 14:32:00,
2013-02-12 07:42:00,16.0,7.0,-100.00,NNE,15,8.0,13.0,67,0.00,,,0.00,0.000000,,2013-02-12 14:42:00,
2013-02-12 07:52:00,16.0,7.0,-100.00,NNE,15,8.0,13.0,67,0.00,,,0.00,0.000000,,2013-02-12 14:52:00,
2013-02-12 08:01:00,16.0,7.0,-100.00,NNE,15,8.0,13.0,67,0.00,,,0.00,0.000000,,2013-02-12 15:01:00,
2013-02-12 08:32:00,16.0,7.0,-100.00,NNW,329,5.0,18.0,66,0.00,,,0.00,2.000000,,2013-02-12 15:32:00,
2013-02-12 08:42:00,16.0,7.0,-100.00,NNW,329,5.0,18.0,66,0.00,,,0.00,2.000000,,2013-02-12 15:42:00,
2013-02-12 08:52:00,16.0,7.0,-100.00,NNW,329,5.0,18.0,66,0.00,,,0.00,2.000000,,2013-02-12 15:52:00,
2013-02-12 09:01:00,16.0,7.0,-100.00,NNW,329,5.0,18.0,66,0.00,,,0.00,2.000000,,2013-02-12 16:01:00,
2013-02-12 09:22:00,21.0,11.0,-100.00,North,353,5.0,18.0,64,0.00,,,0.00,16.000000,,2013-02-12 16:22:00,
2013-02-12 09:32:00,21.0,11.0,-100.00,North,353,5.0,18.0,64,0.00,,,0.00,16.000000,,2013-02-12 16:32:00,
2013-02-12 09:42:00,21.0,11.0,-100.00,North,353,5.0,18.0,64,0.00,,,0.00,16.000000,,2013-02-12 16:42:00,
2013-02-12 09:52:00,21.0,11.0,-100.00,North,353,5.0,18.0,64,0.00,,,0.00,16.000000,,2013-02-12 16:52:00,
2013-02-12 10:01:00,21.0,11.0,-100.00,North,353,5.0,18.0,64,0.00,,,0.00,16.000000,,2013-02-12 17:01:00,
2013-02-12 10:32:00,34.0,16.0,-100.00,NNW,341,2.0,17.0,48,-99.99,,,0.00,102.000000,,2013-02-12 17:32:00,
2013-02-12 10:42:00,34.0,16.0,-100.00,NNW,341,2.0,17.0,48,-99.99,,,0.00,102.000000,,2013-02-12 17:42:00,
2013-02-12 10:52:00,34.0,16.0,-100.00,NNW,341,2.0,17.0,48,-99.99,,,0.00,102.000000,,2013-02-12 17:52:00,
2013-02-12 11:01:00,34.0,16.0,-100.00,NNW,341,2.0,17.0,48,-99.99,,,0.00,102.000000,,2013-02-12 18:01:00,
2013-02-12 11:32:00,47.0,20.0,-100.00,NNW,332,1.0,9.0,34,0.00,,,0.00,447.000000,,2013-02-12 18:32:00,
2013-02-12 11:42:00,47.0,20.0,-100.00,NNW,332,1.0,9.0,34,0.00,,,0.00,447.000000,,2013-02-12 18:42:00,
2013-02-12 11:52:00,47.0,20.0,-100.00,NNW,332,1.0,9.0,34,0.00,,,0.00,447.000000,,2013-02-12 18:52:00,
2013-02-12 12:01:00,47.0,20.0,-100.00,NNW,332,1.0,9.0,34,0.00,,,0.00,447.000000,,2013-02-12 19:01:00,
2013-02-12 12:32:00,48.0,18.0,-100.00,WNW,299,1.0,8.0,30,-99.99,,,0.00,615.000000,,2013-02-12 19:32:00,
2013-02-12 12:42:00,48.0,18.0,-100.00,WNW,299,1.0,8.0,30,-99.99,,,0.00,615.000000,,2013-02-12 19:42:00,
2013-02-12 12:52:00,48.0,18.0,-100.00,WNW,299,1.0,8.0,30,-99.99,,,0.00,615.000000,,2013-02-12 19:52:00,
2013-02-12 13:01:00,48.0,18.0,-100.00,WNW,299,1.0,8.0,30,-99.99,,,0.00,615.000000,,2013-02-12 20:01:00,
2013-02-12 14:32:00,47.0,20.0,-100.00,North,0,2.0,6.0,34,-99.99,,,0.00,640.000000,,2013-02-12 21:32:00,
2013-02-12 14:42:00,47.0,20.0,-100.00,North,0,2.0,6.0,34,-99.99,,,0.00,640.000000,,2013-02-12 21:42:00,
2013-02-12 14:52:00,47.0,20.0,-100.00,North,0,2.0,6.0,34,-99.99,,,0.00,640.000000,,2013-02-12 21:52:00,
2013-02-12 15:01:00,47.0,20.0,-100.00,North,0,2.0,6.0,34,-99.99,,,0.00,640.000000,,2013-02-12 22:01:00,
2013-02-12 15:22:00,49.0,19.0,-100.00,WNW,298,0.0,9.0,30,0.10,,,0.10,556.000000,,2013-02-12 22:22:00,
2013-02-12 15:32:00,49.0,19.0,-100.00,WNW,298,0.0,9.0,30,0.10,,,0.10,556.000000,,2013-02-12 22:32:00,
2013-02-12 15:42:00,49.0,19.0,-100.00,WNW,298,0.0,9.0,30,0.10,,,0.10,556.000000,,2013-02-12 22:42:00,
2013-02-12 15:52:00,49.0,19.0,-100.00,WNW,298,0.0,9.0,30,0.10,,,0.10,556.000000,,2013-02-12 22:52:00,
2013-02-12 16:01:00,49.0,19.0,-100.00,WNW,298,0.0,9.0,30,0.10,,,0.10,556.000000,,2013-02-12 23:01:00,
2013-02-12 16:32:00,49.0,21.0,-100.00,North,0,0.0,5.0,33,0.10,,,0.20,421.000000,,2013-02-12 23:32:00,
2013-02-12 16:42:00,49.0,21.0,-100.00,North,0,0.0,5.0,33,0.10,,,0.20,421.000000,,2013-02-12 23:42:00,
2013-02-12 16:52:00,49.0,21.0,-100.00,North,0,0.0,5.0,33,0.10,,,0.20,421.000000,,2013-02-12 23:52:00,
2013-02-12 17:02:00,49.0,21.0,-100.00,North,0,0.0,5.0,33,0.10,,,0.20,421.000000,,2013-02-13 00:02:00,
2013-02-12 17:32:00,36.0,25.0,-100.00,NNW,328,0.0,7.0,64,0.00,,,0.20,135.000000,,2013-02-13 00:32:00,
2013-02-12 17:42:00,36.0,25.0,-100.00,NNW,328,0.0,7.0,64,0.00,,,0.20,135.000000,,2013-02-13 00:42:00,
2013-02-12 17:52:00,36.0,25.0,-100.00,NNW,328,0.0,7.0,64,0.00,,,0.20,135.000000,,2013-02-13 00:52:00,
2013-02-12 18:01:00,36.0,25.0,-100.00,NNW,328,0.0,7.0,64,0.00,,,0.20,135.000000,,2013-02-13 01:01:00,
2013-02-12 18:42:00,32.0,26.0,-100.00,NNW,343,0.0,3.0,79,0.00,,,0.20,15.000000,,2013-02-13 01:42:00,
2013-02-12 18:52:00,32.0,26.0,-100.00,NNW,343,0.0,3.0,79,0.00,,,0.20,15.000000,,2013-02-13 01:52:00,
2013-02-12 19:01:00,32.0,26.0,-100.00,NNW,343,0.0,3.0,79,0.00,,,0.20,15.000000,,2013-02-13 02:01:00,
2013-02-12 19:42:00,30.0,26.0,-100.00,NNW,328,0.0,5.0,85,0.00,,,0.20,0.000000,,2013-02-13 02:42:00,
2013-02-12 19:52:00,30.0,26.0,-100.00,NNW,328,0.0,5.0,85,0.00,,,0.20,0.000000,,2013-02-13 02:52:00,
2013-02-12 20:01:00,30.0,26.0,-100.00,NNW,328,0.0,5.0,85,0.00,,,0.20,0.000000,,2013-02-13 03:01:00,
2013-02-12 20:32:00,29.0,25.0,-100.00,NNW,343,0.0,4.0,86,0.00,,,0.20,0.000000,,2013-02-13 03:32:00,
2013-02-12 20:42:00,29.0,25.0,-100.00,NNW,343,0.0,4.0,86,0.00,,,0.20,0.000000,,2013-02-13 03:42:00,
2013-02-12 20:52:00,29.0,25.0,-100.00,NNW,343,0.0,4.0,86,0.00,,,0.20,0.000000,,2013-02-13 03:52:00,
2013-02-12 21:01:00,29.0,25.0,-100.00,NNW,343,0.0,4.0,86,0.00,,,0.20,0.000000,,2013-02-13 04:01:00,
2013-02-12 21:32:00,28.0,24.0,-100.00,WNW,291,0.0,6.0,83,0.00,,,0.20,0.000000,,2013-02-13 04:32:00,
2013-02-12 21:42:00,28.0,24.0,-100.00,WNW,291,0.0,6.0,83,0.00,,,0.20,0.000000,,2013-02-13 04:42:00,
2013-02-12 21:52:00,28.0,24.0,-100.00,WNW,291,0.0,6.0,83,0.00,,,0.20,0.000000,,2013-02-13 04:52:00,
2013-02-12 22:01:00,28.0,24.0,-100.00,WNW,291,0.0,6.0,83,0.00,,,0.20,0.000000,,2013-02-13 05:01:00,
2013-02-12 22:32:00,27.0,19.0,-100.00,NNW,333,0.0,4.0,72,0.00,,,0.20,0.000000,,2013-02-13 05:32:00,
2013-02-12 22:42:00,27.0,19.0,-100.00,NNW,333,0.0,4.0,72,0.00,,,0.20,0.000000,,2013-02-13 05:42:00,
2013-02-12 22:52:00,27.0,19.0,-100.00,NNW,333,0.0,4.0,72,0.00,,,0.20,0.000000,,2013-02-13 05:52:00,
2013-02-12 23:01:00,27.0,19.0,-100.00,NNW,333,0.0,4.0,72,0.00,,,0.20,0.000000,,2013-02-13 06:01:00,
2013-02-12 23:22:00,28.0,16.0,-100.00,NNW,345,4.0,13.0,61,0.00,,,0.20,0.000000,,2013-02-13 06:22:00,
2013-02-12 23:32:00,28.0,16.0,-100.00,NNW,345,4.0,13.0,61,0.00,,,0.20,0.000000,,2013-02-13 06:32:00,
2013-02-12 23:42:00,28.0,16.0,-100.00,NNW,345,4.0,13.0,61,0.00,,,0.20,0.000000,,2013-02-13 06:42:00,
2013-02-12 23:52:00,28.0,16.0,-100.00,NNW,345,4.0,13.0,61,0.00,,,0.20,0.000000,,2013-02-13 06:52:00,